TimeCDT,TemperatureF,Dew PointF,Humidity,Sea Level PressureIn,VisibilityMPH,Wind Direction,Wind SpeedMPH,Gust SpeedMPH,PrecipitationIn,Events,Conditions,WindDirDegrees,DateUTC
12:15 AM,57.4,52.5,84,30.19,10.0,Calm,Calm,-,N/A,,Clear,0,2013-08-18 05:15:00
12:35 AM,56.1,51.4,84,30.19,10.0,Calm,Calm,-,N/A,,Clear,0,2013-08-18 05:35:00
12:55 AM,55.8,51.6,86,30.19,10.0,Calm,Calm,-,N/A,,Clear,0,2013-08-18 05:55:00
1:15 AM,54.7,51.8,90,30.19,10.0,Calm,Calm,-,N/A,,Clear,0,2013-08-18 06:15:00
1:35 AM,54.3,50.2,86,30.18,10.0,Calm,Calm,-,N/A,,Clear,0,2013-08-18 06:35:00
1:55 AM,53.4,51.6,94,30.18,10.0,Calm,Calm,-,N/A,,Clear,0,2013-08-18 06:55:00
2:15 AM,52.5,50.5,93,30.18,10.0,Calm,Calm,-,N/A,,Clear,0,2013-08-18 07:15:00
2:35 AM,52.5,50.4,92,30.18,10.0,Calm,Calm,-,N/A,,Clear,0,2013-08-18 07:35:00
2:55 AM,52.7,50.2,91,30.18,10.0,Calm,Calm,-,N/A,,Clear,0,2013-08-18 07:55:00
3:15 AM,52.5,49.8,91,30.19,10.0,Calm,Calm,-,N/A,,Clear,0,2013-08-18 08:15:00
3:35 AM,52.0,49.5,91,30.19,10.0,Calm,Calm,-,N/A,,Clear,0,2013-08-18 08:35:00
3:55 AM,51.4,50.0,95,30.19,10.0,Calm,Calm,-,N/A,,Clear,0,2013-08-18 08:55:00
4:15 AM,50.2,48.6,94,30.19,7.0,Calm,Calm,-,N/A,,Clear,0,2013-08-18 09:15:00
4:35 AM,50.5,49.1,95,30.19,10.0,Calm,Calm,-,N/A,,Clear,0,2013-08-18 09:35:00
4:55 AM,50.0,47.3,90,30.20,10.0,Calm,Calm,-,N/A,,Clear,0,2013-08-18 09:55:00
5:15 AM,49.1,47.7,95,30.21,10.0,Calm,Calm,-,N/A,,Clear,0,2013-08-18 10:15:00
5:35 AM,49.5,48.2,95,30.21,10.0,Calm,Calm,-,N/A,,Clear,0,2013-08-18 10:35:00
5:55 AM,49.1,47.8,95,30.21,10.0,Calm,Calm,-,N/A,,Clear,0,2013-08-18 10:55:00
6:15 AM,48.6,46.6,93,30.21,10.0,Calm,Calm,-,N/A,,Clear,0,2013-08-18 11:15:00
6:35 AM,49.1,47.3,93,30.22,10.0,Calm,Calm,-,N/A,,Clear,0,2013-08-18 11:35:00
6:55 AM,50.5,48.7,94,30.22,10.0,Calm,Calm,-,N/A,,Clear,0,2013-08-18 11:55:00
7:15 AM,52.9,49.6,89,30.22,10.0,Calm,Calm,-,N/A,,Clear,0,2013-08-18 12:15:00
7:35 AM,57.0,52.2,84,30.22,10.0,Calm,Calm,-,N/A,,Clear,0,2013-08-18 12:35:00
7:55 AM,59.7,53.6,80,30.22,10.0,Calm,Calm,-,N/A,,Clear,0,2013-08-18 12:55:00
8:15 AM,62.4,54.5,75,30.22,10.0,South,3.5,-,N/A,,Clear,170,2013-08-18 13:15:00
8:35 AM,64.6,55.4,72,30.22,10.0,Calm,Calm,-,N/A,,Clear,0,2013-08-18 13:35:00
8:55 AM,66.9,55.4,66,30.22,10.0,WSW,3.5,-,N/A,,Clear,250,2013-08-18 13:55:00
9:15 AM,68.9,55.6,62,30.21,10.0,WSW,3.5,-,N/A,,Clear,240,2013-08-18 14:15:00
9:35 AM,69.6,55.2,60,30.21,10.0,WSW,3.5,-,N/A,,Clear,240,2013-08-18 14:35:00
9:55 AM,70.7,55.6,59,30.21,10.0,WSW,4.6,-,N/A,,Clear,250,2013-08-18 14:55:00
10:15 AM,71.1,55.6,58,30.21,10.0,WNW,4.6,-,N/A,,Clear,300,2013-08-18 15:15:00
10:35 AM,72.0,55.9,57,30.21,10.0,West,4.6,-,N/A,,Clear,260,2013-08-18 15:35:00
10:55 AM,73.4,55.8,54,30.21,10.0,West,4.6,-,N/A,,Clear,260,2013-08-18 15:55:00
11:15 AM,73.4,55.0,52,30.20,10.0,WNW,5.8,-,N/A,,Clear,300,2013-08-18 16:15:00
11:35 AM,75.0,54.9,49,30.20,10.0,WSW,4.6,-,N/A,,Clear,250,2013-08-18 16:35:00
11:55 AM,74.3,54.0,49,30.19,10.0,SW,4.6,-,N/A,,Clear,230,2013-08-18 16:55:00
12:15 PM,77.0,54.1,45,30.18,10.0,SSW,5.8,-,N/A,,Scattered Clouds,200,2013-08-18 17:15:00
12:35 PM,75.6,52.7,45,30.18,10.0,SW,9.2,-,N/A,,Mostly Cloudy,220,2013-08-18 17:35:00
12:55 PM,77.2,52.7,42,30.17,10.0,SW,6.9,-,N/A,,Scattered Clouds,230,2013-08-18 17:55:00
1:15 PM,77.9,52.9,42,30.16,10.0,SSW,10.4,-,N/A,,Scattered Clouds,210,2013-08-18 18:15:00
1:35 PM,78.3,52.0,40,30.16,10.0,SSW,8.1,-,N/A,,Scattered Clouds,200,2013-08-18 18:35:00
1:55 PM,79.2,51.8,38,30.15,10.0,SSW,10.4,-,N/A,,Scattered Clouds,200,2013-08-18 18:55:00
2:15 PM,80.2,52.0,37,30.14,10.0,South,8.1,-,N/A,,Scattered Clouds,180,2013-08-18 19:15:00
2:35 PM,80.2,52.2,38,30.13,10.0,SSW,10.4,16.1,N/A,,Scattered Clouds,210,2013-08-18 19:35:00
2:55 PM,79.7,52.3,39,30.13,10.0,South,15.0,-,N/A,,Clear,170,2013-08-18 19:55:00
3:15 PM,79.5,52.2,38,30.13,10.0,South,6.9,-,N/A,,Clear,180,2013-08-18 20:15:00
3:35 PM,79.0,52.3,39,30.12,10.0,SSW,9.2,-,N/A,,Scattered Clouds,200,2013-08-18 20:35:00
3:55 PM,79.7,52.2,38,30.12,10.0,South,6.9,21.9,N/A,,Mostly Cloudy,180,2013-08-18 20:55:00
4:15 PM,79.7,52.0,38,30.11,10.0,SSE,10.4,18.4,N/A,,Scattered Clouds,160,2013-08-18 21:15:00
4:35 PM,79.2,52.0,39,30.11,10.0,South,9.2,-,N/A,,Scattered Clouds,190,2013-08-18 21:35:00
4:55 PM,79.0,52.3,39,30.11,10.0,SSW,10.4,17.3,N/A,,Mostly Cloudy,200,2013-08-18 21:55:00
5:15 PM,79.0,52.9,40,30.11,10.0,SSW,9.2,-,N/A,,Mostly Cloudy,210,2013-08-18 22:15:00
5:35 PM,79.3,52.3,39,30.11,10.0,WSW,10.4,-,N/A,,Overcast,240,2013-08-18 22:35:00
5:55 PM,78.8,52.5,40,30.10,10.0,West,6.9,-,N/A,,Mostly Cloudy,270,2013-08-18 22:55:00
6:15 PM,77.9,52.2,41,30.10,10.0,West,9.2,-,N/A,,Mostly Cloudy,260,2013-08-18 23:15:00
6:35 PM,77.4,52.3,42,30.10,10.0,WSW,9.2,-,N/A,,Scattered Clouds,250,2013-08-18 23:35:00
6:55 PM,76.8,52.9,43,30.10,10.0,WSW,5.8,-,N/A,,Clear,250,2013-08-18 23:55:00
7:15 PM,75.4,54.1,48,30.10,10.0,WSW,5.8,-,N/A,,Clear,250,2013-08-19 00:15:00
7:35 PM,74.5,54.5,50,30.09,10.0,WSW,4.6,-,N/A,,Clear,250,2013-08-19 00:35:00
7:55 PM,73.4,54.5,51,30.09,10.0,WSW,4.6,-,N/A,,Clear,250,2013-08-19 00:55:00
8:15 PM,71.8,54.3,54,30.09,10.0,SW,3.5,-,N/A,,Clear,220,2013-08-19 01:15:00
8:35 PM,69.3,54.3,59,30.09,10.0,Calm,Calm,-,N/A,,Scattered Clouds,0,2013-08-19 01:35:00
8:55 PM,65.8,54.0,65,30.10,10.0,Calm,Calm,-,N/A,,Scattered Clouds,0,2013-08-19 01:55:00
9:15 PM,63.7,55.0,73,30.10,10.0,Calm,Calm,-,N/A,,Clear,0,2013-08-19 02:15:00
9:35 PM,62.1,54.5,76,30.10,10.0,Calm,Calm,-,N/A,,Clear,0,2013-08-19 02:35:00
9:55 PM,61.2,53.2,75,30.10,10.0,Calm,Calm,-,N/A,,Clear,0,2013-08-19 02:55:00
10:15 PM,59.2,53.8,82,30.10,10.0,Calm,Calm,-,N/A,,Clear,0,2013-08-19 03:15:00
10:35 PM,59.0,53.6,82,30.10,10.0,Calm,Calm,-,N/A,,Clear,0,2013-08-19 03:35:00
10:55 PM,58.6,53.8,84,30.10,10.0,Calm,Calm,-,N/A,,Clear,0,2013-08-19 03:55:00
11:15 PM,56.7,54.1,91,30.10,10.0,Calm,Calm,-,N/A,,Clear,0,2013-08-19 04:15:00
11:35 PM,56.3,52.7,88,30.10,10.0,Calm,Calm,-,N/A,,Clear,0,2013-08-19 04:35:00
11:55 PM,58.1,53.6,85,30.11,10.0,Calm,Calm,-,N/A,,Clear,0,2013-08-19 04:55:00